• In Uzbekistan
  • List of Countries
  • For 7 days
  • Water Temperature
  • Satellite Maps
  • Weather Map
  • Weather Widgets
  • user-avatar
    Login

    Hourly Weather Encamp

    Today, 18 August, Friday

    Time Temperature Precipitation Wind Pressure Humidity
    00:00 +15°C° 0 mm 1 mps 628 mmHg 78%
    01:00 +14°C° 0 mm 1 mps 628 mmHg 78%
    02:00 +14°C° 0 mm 1 mps 628 mmHg 77%
    03:00 +14°C° 0 mm 1 mps 627 mmHg 77%
    04:00 +14°C° 0 mm 1 mps 628 mmHg 75%
    05:00 +14°C° 0 mm 1 mps 628 mmHg 73%
    06:00 +16°C° 0 mm 1 mps 628 mmHg 73%
    07:00 +19°C° 0 mm 1 mps 629 mmHg 64%
    08:00 +20°C° 0 mm 2 mps 630 mmHg 55%
    09:00 +23°C° 0 mm 2 mps 630 mmHg 46%
    10:00 +24°C° 0 mm 2 mps 631 mmHg 45%
    11:00 +25°C° 0 mm 3 mps 631 mmHg 43%
    12:00 +26°C° 0 mm 3 mps 631 mmHg 41%
    13:00 +26°C° 0.1 mm 3 mps 631 mmHg 44%
    14:00 +25°C° 0.1 mm 3 mps 630 mmHg 47%
    15:00 +25°C° 0.1 mm 3 mps 630 mmHg 50%
    16:00 +22°C° 0.5 mm 3 mps 629 mmHg 57%
    17:00 +20°C° 0.5 mm 2 mps 629 mmHg 65%
    18:00 +19°C° 0.5 mm 2 mps 629 mmHg 73%
    19:00 +17°C° 0.5 mm 2 mps 629 mmHg 78%
    20:00 +16°C° 0.5 mm 2 mps 629 mmHg 83%
    21:00 +15°C° 0.5 mm 2 mps 628 mmHg 89%
    22:00 +15°C° 0.3 mm 2 mps 628 mmHg 90%
    23:00 +14°C° 0.3 mm 2 mps 629 mmHg 91%

    Tomorrow, 19 August, Saturday

    Time Temperature Precipitation Wind Pressure Humidity
    00:00 +14°C° 0.3 mm 2 mps 629 mmHg 92%
    01:00 +14°C° 0.1 mm 2 mps 628 mmHg 92%
    02:00 +13°C° 0.1 mm 2 mps 628 mmHg 92%
    03:00 +13°C° 0.1 mm 2 mps 628 mmHg 92%
    04:00 +13°C° 0 mm 2 mps 628 mmHg 92%
    05:00 +13°C° 0 mm 2 mps 628 mmHg 91%
    06:00 +12°C° 0 mm 2 mps 628 mmHg 91%
    07:00 +13°C° 0 mm 2 mps 629 mmHg 86%
    08:00 +14°C° 0 mm 2 mps 630 mmHg 81%
    09:00 +15°C° 0 mm 2 mps 630 mmHg 76%
    10:00 +17°C° 0 mm 2 mps 631 mmHg 69%
    11:00 +18°C° 0 mm 2 mps 631 mmHg 63%
    12:00 +19°C° 0 mm 2 mps 631 mmHg 57%
    13:00 +19°C° 0.1 mm 2 mps 631 mmHg 59%
    14:00 +19°C° 0.1 mm 2 mps 631 mmHg 61%
    15:00 +18°C° 0.1 mm 2 mps 630 mmHg 63%
    16:00 +17°C° 0.2 mm 2 mps 630 mmHg 66%
    17:00 +16°C° 0.2 mm 2 mps 630 mmHg 69%
    18:00 +15°C° 0.2 mm 2 mps 629 mmHg 72%
    19:00 +14°C° 0 mm 2 mps 629 mmHg 75%
    20:00 +13°C° 0 mm 2 mps 629 mmHg 79%
    21:00 +12°C° 0 mm 2 mps 629 mmHg 82%
    22:00 +10°C° 0 mm 2 mps 629 mmHg 82%
    23:00 +10°C° 0 mm 2 mps 629 mmHg 82%

    Day after tomorrow, 20 August, Sunday

    Time Temperature Precipitation Wind Pressure Humidity
    00:00 +10°C° 0 mm 2 mps 629 mmHg 82%
    01:00 +9°C° 0 mm 2 mps 629 mmHg 82%
    02:00 +9°C° 0 mm 2 mps 628 mmHg 82%
    03:00 +9°C° 0 mm 2 mps 628 mmHg 82%
    04:00 +9°C° 0 mm 2 mps 628 mmHg 80%
    05:00 +9°C° 0 mm 2 mps 629 mmHg 79%
    06:00 +9°C° 0 mm 2 mps 629 mmHg 77%
    07:00 +12°C° 0 mm 2 mps 630 mmHg 64%
    08:00 +15°C° 0 mm 2 mps 631 mmHg 51%
    09:00 +18°C° 0 mm 2 mps 632 mmHg 38%
    10:00 +19°C° 0 mm 2 mps 633 mmHg 35%
    11:00 +21°C° 0 mm 2 mps 633 mmHg 31%
    12:00 +23°C° 0 mm 2 mps 633 mmHg 28%
    13:00 +23°C° 0 mm 2 mps 633 mmHg 28%
    14:00 +23°C° 0 mm 2 mps 633 mmHg 29%
    15:00 +23°C° 0 mm 2 mps 632 mmHg 29%
    16:00 +21°C° 0 mm 2 mps 632 mmHg 35%
    17:00 +19°C° 0 mm 2 mps 631 mmHg 41%
    18:00 +19°C° 0 mm 1 mps 630 mmHg 48%
    19:00 +16°C° 0 mm 1 mps 630 mmHg 50%
    20:00 +14°C° 0 mm 1 mps 630 mmHg 53%
    21:00 +12°C° 0 mm 1 mps 629 mmHg 56%
    22:00 +12°C° 0 mm 1 mps 629 mmHg 53%
    23:00 +12°C° 0 mm 1 mps 629 mmHg 50%

    21 August, Monday

    Time Temperature Precipitation Wind Pressure Humidity
    00:00 +12°C° 0 mm 1 mps 629 mmHg 47%
    01:00 +12°C° 0 mm 1 mps 629 mmHg 45%
    02:00 +12°C° 0 mm 1 mps 629 mmHg 43%
    03:00 +12°C° 0 mm 1 mps 628 mmHg 40%
    04:00 +12°C° 0 mm 1 mps 628 mmHg 41%
    05:00 +12°C° 0 mm 1 mps 629 mmHg 41%
    06:00 +12°C° 0 mm 1 mps 629 mmHg 41%
    07:00 +16°C° 0 mm 1 mps 630 mmHg 38%
    08:00 +20°C° 0 mm 1 mps 631 mmHg 35%
    09:00 +23°C° 0 mm 1 mps 632 mmHg 32%
    10:00 +24°C° 0 mm 1 mps 632 mmHg 31%
    11:00 +25°C° 0 mm 1 mps 633 mmHg 30%
    12:00 +27°C° 0 mm 1 mps 633 mmHg 29%
    13:00 +27°C° 0 mm 2 mps 633 mmHg 29%
    14:00 +27°C° 0 mm 2 mps 632 mmHg 30%
    15:00 +27°C° 0 mm 2 mps 632 mmHg 31%
    16:00 +25°C° 0 mm 2 mps 631 mmHg 38%
    17:00 +23°C° 0 mm 2 mps 630 mmHg 45%
    18:00 +21°C° 0 mm 1 mps 630 mmHg 52%
    19:00 +20°C° 0 mm 1 mps 629 mmHg 58%
    20:00 +18°C° 0 mm 1 mps 629 mmHg 64%
    21:00 +15°C° 0 mm 1 mps 628 mmHg 69%
    22:00 +15°C° 0 mm 1 mps 628 mmHg 70%
    23:00 +15°C° 0 mm 1 mps 628 mmHg 71%

    22 August, Tuesday

    Time Temperature Precipitation Wind Pressure Humidity
    00:00 +15°C° 0 mm 1 mps 628 mmHg 72%
    01:00 +14°C° 0 mm 1 mps 628 mmHg 72%
    02:00 +14°C° 0 mm 1 mps 627 mmHg 72%
    03:00 +14°C° 0 mm 1 mps 627 mmHg 72%
    04:00 +15°C° 0 mm 1 mps 627 mmHg 71%
    05:00 +15°C° 0 mm 1 mps 628 mmHg 70%
    06:00 +15°C° 0 mm 1 mps 628 mmHg 69%
    07:00 +19°C° 0 mm 1 mps 629 mmHg 59%
    08:00 +22°C° 0 mm 1 mps 630 mmHg 49%
    09:00 +25°C° 0 mm 1 mps 631 mmHg 40%
    10:00 +26°C° 0 mm 2 mps 631 mmHg 37%
    11:00 +28°C° 0 mm 2 mps 632 mmHg 35%
    12:00 +29°C° 0 mm 2 mps 632 mmHg 32%
    13:00 +28°C° 0.1 mm 2 mps 631 mmHg 36%
    14:00 +27°C° 0.1 mm 2 mps 631 mmHg 40%
    15:00 +26°C° 0.1 mm 2 mps 630 mmHg 44%
    16:00 +25°C° 0.2 mm 1 mps 630 mmHg 49%
    17:00 +24°C° 0.2 mm 1 mps 630 mmHg 54%
    18:00 +22°C° 0.2 mm 1 mps 629 mmHg 59%
    19:00 +21°C° 0.3 mm 1 mps 629 mmHg 65%
    20:00 +19°C° 0.3 mm 1 mps 629 mmHg 70%
    21:00 +16°C° 0.3 mm 1 mps 628 mmHg 76%
    22:00 +16°C° 0.1 mm 1 mps 628 mmHg 77%
    23:00 +15°C° 0.1 mm 1 mps 628 mmHg 78%

    23 August, Wednesday

    Time Temperature Precipitation Wind Pressure Humidity
    00:00 +15°C° 0.1 mm 1 mps 628 mmHg 79%
    01:00 +15°C° 0.1 mm 1 mps 628 mmHg 80%
    02:00 +14°C° 0.1 mm 1 mps 628 mmHg 80%
    03:00 +14°C° 0.1 mm 1 mps 628 mmHg 80%
    04:00 +14°C° 0.1 mm 1 mps 628 mmHg 79%
    05:00 +15°C° 0.1 mm 1 mps 628 mmHg 78%
    06:00 +15°C° 0.1 mm 1 mps 628 mmHg 77%
    07:00 +18°C° 0.1 mm 1 mps 629 mmHg 68%
    08:00 +20°C° 0.1 mm 1 mps 630 mmHg 59%
    09:00 +23°C° 0.1 mm 2 mps 631 mmHg 51%
    10:00 +24°C° 0.3 mm 2 mps 632 mmHg 47%
    11:00 +25°C° 0.3 mm 2 mps 632 mmHg 44%
    12:00 +26°C° 0.3 mm 2 mps 632 mmHg 41%
    13:00 +26°C° 0.3 mm 2 mps 632 mmHg 42%
    14:00 +26°C° 0.3 mm 2 mps 632 mmHg 43%
    15:00 +25°C° 0.3 mm 2 mps 631 mmHg 44%
    16:00 +24°C° 0.3 mm 2 mps 631 mmHg 50%
    17:00 +23°C° 0.3 mm 2 mps 630 mmHg 56%
    18:00 +21°C° 0.3 mm 1 mps 630 mmHg 62%
    19:00 +19°C° 0.3 mm 1 mps 629 mmHg 67%
    20:00 +18°C° 0.3 mm 1 mps 629 mmHg 72%
    21:00 +15°C° 0.3 mm 1 mps 629 mmHg 78%
    22:00 +15°C° 0.1 mm 1 mps 629 mmHg 77%
    23:00 +14°C° 0.1 mm 1 mps 628 mmHg 77%
    Show more